User: anonymous   Login
Location: NJAA Observatory
(40.6819°N, 74.8979°W)
Time: 13:19:03
(UTC-04:00)
Language:

Iridium 56 - Orbit

View from above orbital plane
View from above orbital plane
View from above satellite
View from above satellite

Ground track
Ground track

The orbit data is extracted from the following two-line orbital elements,

1 25170U 98010B   15125.06630650 -.00000020  00000-0 -14038-4 0  9997
2 25170 086.3925 314.0412 0001922 079.0872 034.9907 14.34212680900802
Epoch (UTC): 05 May 2015 01:35:28
Eccentricity: 0.0001922
inclination: 86.3925°
perigee height: 776 km
apogee height: 779 km
right ascension of ascending node: 314.0412°
argument of perigee: 79.0872°
revolutions per day: 14.34212680
mean anomaly at epoch: 34.9907°
orbit number at epoch: 90080

The dashed part of the orbit path shows where the satellite is in the earth's shadow,  

DLR